Strathmore
DateTemperatureDew Point
05/08 - 12:30 PM86.1°63.3°
05/08 - 12:15 PM85.7°63.7°
05/08 - 12:00 PM84.0°63.1°
05/08 - 11:45 AM83.3°63.3°
05/08 - 11:30 AM82.8°63.2°
05/08 - 11:15 AM82.6°63.4°
05/08 - 11:00 AM81.2°62.8°
05/08 - 10:45 AM80.0°62.6°
05/08 - 10:30 AM79.3°62.3°
05/08 - 10:15 AM79.5°62.3°
05/08 - 10:00 AM78.3°62.1°
05/08 - 09:45 AM76.6°61.6°
05/08 - 09:30 AM75.5°61.5°
05/08 - 09:15 AM74.7°61.5°
05/08 - 09:00 AM73.7°61.5°
05/08 - 08:45 AM72.8°61.9°
05/08 - 08:30 AM71.6°61.7°
05/08 - 08:15 AM70.2°61.5°
05/08 - 08:00 AM68.9°61.5°
05/08 - 07:45 AM67.5°61.4°
05/08 - 07:30 AM66.1°61.4°
05/08 - 07:15 AM64.1°62.6°
05/08 - 07:00 AM61.5°61.5°
05/08 - 06:45 AM59.3°59.3°
05/08 - 06:30 AM57.9°57.9°
05/08 - 06:15 AM56.8°56.8°
05/08 - 06:00 AM56.4°56.4°
05/08 - 05:45 AM56.3°56.3°
05/08 - 05:30 AM56.3°56.3°
05/08 - 05:15 AM56.3°56.3°
05/08 - 05:00 AM56.4°56.4°
05/08 - 04:45 AM56.4°56.4°
05/08 - 04:30 AM56.8°56.8°
05/08 - 04:15 AM57.2°57.2°
05/08 - 04:00 AM57.7°57.7°
05/08 - 03:45 AM58.3°58.3°
05/08 - 03:30 AM58.6°58.6°
05/08 - 03:15 AM58.4°58.4°
05/08 - 03:00 AM58.5°58.4°
05/08 - 02:45 AM59.0°58.9°
05/08 - 02:30 AM59.4°59.1°
05/08 - 02:15 AM59.7°59.3°
05/08 - 02:00 AM59.8°59.0°
05/08 - 01:45 AM60.1°59.0°
05/08 - 01:30 AM60.7°59.2°
05/08 - 01:15 AM61.3°59.3°
05/08 - 01:00 AM62.0°59.5°
05/08 - 12:45 AM62.9°59.4°
05/08 - 12:30 AM63.4°59.4°
05/08 - 12:15 AM63.3°59.8°
05/08 - 12:00 AM63.5°59.8°
05/07 - 11:45 PM63.5°60.1°
05/07 - 11:30 PM63.3°60.0°
05/07 - 11:15 PM63.3°60.3°
05/07 - 11:00 PM63.5°60.7°
05/07 - 10:45 PM63.7°61.2°
05/07 - 10:30 PM63.8°61.4°
05/07 - 10:15 PM64.2°61.6°
05/07 - 10:00 PM64.7°61.8°
05/07 - 09:45 PM65.2°62.0°
05/07 - 09:30 PM65.5°61.7°
05/07 - 09:15 PM66.0°61.5°
05/07 - 09:00 PM66.5°61.6°
05/07 - 08:45 PM67.5°62.3°
05/07 - 08:30 PM68.6°61.9°
05/07 - 08:15 PM70.0°61.6°
05/07 - 08:00 PM72.1°61.3°
05/07 - 07:45 PM74.7°61.1°
05/07 - 07:30 PM77.2°60.9°
05/07 - 07:15 PM79.6°60.1°
05/07 - 07:00 PM81.6°60.0°
05/07 - 06:45 PM83.0°60.0°
05/07 - 06:30 PM83.9°59.5°
05/07 - 06:15 PM85.0°59.5°
05/07 - 06:00 PM85.6°59.3°
05/07 - 05:45 PM86.0°59.4°
05/07 - 05:30 PM86.5°59.4°
05/07 - 05:15 PM86.8°59.3°
05/07 - 05:00 PM87.4°59.4°
05/07 - 04:45 PM87.6°59.3°
05/07 - 04:30 PM88.5°59.3°
05/07 - 04:15 PM88.9°59.4°
05/07 - 04:00 PM89.2°59.1°
05/07 - 03:45 PM89.5°59.5°
05/07 - 03:30 PM89.0°59.2°
05/07 - 03:15 PM89.1°59.3°
05/07 - 03:00 PM88.6°59.6°
05/07 - 02:45 PM87.9°58.7°
05/07 - 02:30 PM88.3°59.3°
05/07 - 02:15 PM87.2°59.0°
05/07 - 02:00 PM86.6°58.8°
05/07 - 01:45 PM85.9°58.7°
05/07 - 01:30 PM86.4°59.0°
05/07 - 01:15 PM86.4°58.8°
05/07 - 01:00 PM85.0°58.7°
05/07 - 12:45 PM84.6°58.6°
05/07 - 12:30 PM84.5°58.4°
05/07 - 12:15 PM84.3°58.6°
05/07 - 12:00 PM84.3°58.6°
05/07 - 11:45 AM83.1°58.6°
05/07 - 11:30 AM82.1°58.1°
05/07 - 11:15 AM82.5°57.7°
05/07 - 11:00 AM82.2°58.2°
05/07 - 10:45 AM81.0°57.8°
05/07 - 10:30 AM80.2°57.7°
05/07 - 10:15 AM80.1°57.6°
05/07 - 10:00 AM78.7°57.1°
05/07 - 09:45 AM77.0°56.5°
05/07 - 09:30 AM75.4°56.1°
05/07 - 09:15 AM73.6°55.9°
05/07 - 09:00 AM72.6°55.7°
05/07 - 08:45 AM71.2°55.9°
05/07 - 08:30 AM70.3°55.7°
05/07 - 08:15 AM69.1°55.3°
05/07 - 08:00 AM67.7°55.2°
05/07 - 07:45 AM66.0°55.4°
05/07 - 07:30 AM63.7°55.4°
05/07 - 07:15 AM61.6°55.6°
05/07 - 07:00 AM58.7°56.6°
05/07 - 06:45 AM55.8°55.8°
05/07 - 06:30 AM54.2°54.2°
05/07 - 06:15 AM53.1°53.0°
05/07 - 06:00 AM52.7°52.2°
05/07 - 05:45 AM52.5°51.6°
05/07 - 05:30 AM53.0°51.6°
05/07 - 05:15 AM53.7°52.1°
05/07 - 05:00 AM54.5°52.5°
05/07 - 04:45 AM54.6°53.0°
05/07 - 04:30 AM54.3°52.8°
05/07 - 04:15 AM54.8°53.0°
05/07 - 04:00 AM55.3°53.3°
05/07 - 03:45 AM55.3°53.5°
05/07 - 03:30 AM54.6°53.4°
05/07 - 03:15 AM54.6°52.9°
05/07 - 03:00 AM55.1°53.1°
05/07 - 02:45 AM55.6°53.3°
05/07 - 02:30 AM56.2°53.5°
05/07 - 02:15 AM56.8°53.1°
05/07 - 02:00 AM56.8°53.3°
05/07 - 01:45 AM56.4°53.5°
05/07 - 01:30 AM56.6°53.5°
05/07 - 01:15 AM56.5°53.7°
05/07 - 01:00 AM56.3°53.8°
05/07 - 12:45 AM56.4°53.7°
05/07 - 12:30 AM56.6°53.8°
05/07 - 12:15 AM57.0°54.0°
05/07 - 12:00 AM57.1°54.4°
05/06 - 11:45 PM56.7°54.7°
05/06 - 11:30 PM56.5°54.8°
05/06 - 11:15 PM56.8°54.7°
05/06 - 11:00 PM57.3°54.5°
05/06 - 10:45 PM57.4°55.2°
05/06 - 10:30 PM57.4°55.9°
05/06 - 10:15 PM57.4°55.8°
05/06 - 10:00 PM57.8°55.8°
05/06 - 09:45 PM58.3°55.8°
05/06 - 09:30 PM58.9°55.9°
05/06 - 09:15 PM59.6°56.5°
05/06 - 09:00 PM60.3°56.9°
05/06 - 08:45 PM61.0°57.1°
05/06 - 08:30 PM62.1°57.2°
05/06 - 08:15 PM63.4°56.8°
05/06 - 08:00 PM65.3°56.0°
05/06 - 07:45 PM67.5°55.3°
05/06 - 07:30 PM70.1°54.5°
05/06 - 07:15 PM72.1°53.7°
05/06 - 07:00 PM73.6°53.7°
05/06 - 06:45 PM74.9°53.7°
05/06 - 06:30 PM75.8°53.6°
05/06 - 06:15 PM76.6°53.5°
05/06 - 06:00 PM77.1°53.3°
05/06 - 05:45 PM77.8°53.6°
05/06 - 05:30 PM78.5°53.9°
05/06 - 05:15 PM78.6°53.8°
05/06 - 05:00 PM79.4°54.2°
05/06 - 04:45 PM79.7°54.1°
05/06 - 04:30 PM81.0°54.3°
05/06 - 04:15 PM80.5°54.0°
05/06 - 04:00 PM80.9°54.3°
05/06 - 03:45 PM80.8°54.6°
05/06 - 03:30 PM80.5°54.7°
05/06 - 03:15 PM80.5°54.8°
05/06 - 03:00 PM80.0°54.6°
05/06 - 02:45 PM80.3°54.7°
05/06 - 02:30 PM79.9°54.6°
05/06 - 02:15 PM79.4°54.7°
05/06 - 02:00 PM79.0°54.8°
05/06 - 01:45 PM78.3°54.6°
05/06 - 01:30 PM78.1°54.3°
05/06 - 01:15 PM77.2°54.2°
05/06 - 01:00 PM76.8°53.4°